Location: Elma
(49.8670°N, 95.9170°W)
Time: 22:21:46
(UTC-05:00)

Envisat - Visible Passes

Search period start: 20 October 2019 00:00
Search period end: 30 October 2019 00:00
Orbit: 764 x 766 km, 98.1° (Epoch: 20 October)

Date Brightness Start Highest point End Pass type
(mag) Time Alt. Az. Time Alt. Az. Time Alt. Az.
20 Oct 3.0 19:13:19 10° SSE 19:18:24 84° ENE 19:23:32 10° NNW visible
20 Oct 6.0 20:55:10 10° WSW 20:58:06 15° W 21:01:04 10° NW visible
21 Oct 6.0 07:18:23 10° NE 07:22:13 21° E 07:26:03 10° SE visible
21 Oct 5.0 20:16:28 10° SSW 20:20:55 30° W 20:25:24 10° NNW visible
22 Oct 6.7 06:44:35 10° E 06:44:56 10° E 06:45:16 10° E visible
22 Oct 3.6 19:38:55 10° S 19:43:57 61° W 19:49:00 10° NNW visible
23 Oct 3.0 19:02:07 10° SSE 19:07:09 69° ENE 19:12:14 10° N visible
23 Oct 5.7 20:43:09 10° SW 20:46:42 19° W 20:50:16 10° NW visible
24 Oct 6.1 07:07:30 10° NE 07:10:50 17° E 07:14:08 10° SE visible
24 Oct 4.6 20:04:53 10° SSW 20:09:34 37° W 20:14:18 10° NNW visible
25 Oct 3.2 19:27:35 10° S 19:32:39 75° WSW 19:37:45 10° NNW visible
25 Oct 6.2 21:11:03 10° WSW 21:12:34 11° W 21:14:06 10° WNW visible
26 Oct 3.1 18:50:58 10° SSE 18:55:55 56° ENE 19:00:55 10° N visible
26 Oct 5.4 20:31:18 10° SW 20:35:18 23° W 20:39:19 10° NW visible
27 Oct 6.2 06:56:47 10° NE 06:59:24 14° E 07:02:01 10° ESE visible
27 Oct 4.1 19:53:23 10° S 19:58:14 45° W 20:03:08 10° NNW visible
28 Oct 3.0 19:16:18 10° SSE 19:21:22 90° SE 19:26:30 10° NNW visible
28 Oct 6.0 20:58:29 10° WSW 21:01:08 14° W 21:03:48 10° NW visible
29 Oct 5.8 07:21:14 10° NE 07:25:15 23° E 07:29:13 10° SE visible
29 Oct 3.3 18:39:52 10° SE 18:44:42 46° ENE 18:49:34 10° N visible
29 Oct 5.1 20:19:35 10° SSW 20:23:55 28° W 20:28:17 10° NW visible
